User: anonymous   Login
Location: Unspecified
(0.0000°N, 0.0000°E)
Time: 01:05:33
(UTC+00:00)
Language:

SENTINEL 2B - Orbit

View from above orbital plane
View from above orbital plane
View from above satellite
View from above satellite

Ground track
Ground track

The orbit data is extracted from the following two-line orbital elements,

1 42063U 17013A   19197.79502538 -.00000013  00000-0  11736-4 0  9990
2 42063  98.5667 271.8786 0001074  88.8429 271.2876 14.30818036123236
Epoch (UTC): 16 July 2019 19:04:50
Eccentricity: 0.0001074
inclination: 98.5667°
perigee height: 788 km
apogee height: 790 km
right ascension of ascending node: 271.8786°
argument of perigee: 88.8429°
revolutions per day: 14.30818036
mean anomaly at epoch: 271.2876°
orbit number at epoch: 12323

The dashed part of the orbit path shows where the satellite is in the earth's shadow,  

DLR